Nadi, Fiji

11:10 PM FJT on February 12, 2016 (GMT +1200)
Nadi International

Weather History for NFFN - August, 2013

Change the Weather History Date:

Wednesday, August 21, 2013

  Actual Average Record
Temperature  
Mean Temperature 78 °F -  
Max Temperature 86 °F 80 °F - ()
Min Temperature 71 °F 66 °F - ()
Cooling Degree Days 14    
Growing Degree Days 28 (Base 50)    
Moisture  
Dew Point 71 °F    
Average Humidity 76    
Maximum Humidity 94    
Minimum Humidity 58    
Precipitation  
Precipitation 0.00 in 0.09 in - ()
Sea Level Pressure  
Sea Level Pressure 29.85 in    
Wind  
Wind Speed 4 mph ()    
Max Wind Speed 14 mph    
Max Gust Speed -    
Visibility 7.4 miles    
Events      
T = Trace of Precipitation, MM = Missing Value Source: Averaged Metar Reports

Daily Weather History Graph

Daily Weather History Graph

Search for Another Location

Airport or City:

Trip Planner

Search our weather history database for the weather conditions in past years. The results will help you decide how hot, cold, wet, or windy it might be!

Date:

Astronomy

Aug. 21, 2013 Rise Set
Actual Time 6:25 AM FJT 6:01 PM FJT
Civil Twilight 6:03 AM FJT 6:23 PM FJT
Nautical Twilight 5:38 AM FJT 6:49 PM FJT
Astronomical Twilight 5:12 AM FJT 7:14 PM FJT
Moon 6:07 PM FJT (8/21) 6:00 AM FJT (8/21)
Length of Visible Light 12h 19m
Length of Day
11h 35m
Full, 100% of the Moon is Illuminated
Aug 21
Full
Aug 21
Full
Aug 28
Last Quarter
Sep 5
New
Sep 13
First Quarter

Hourly Weather History & Observations

Time (FJT) Temp. Heat Index Dew Point Humidity Pressure Visibility Wind Dir Wind Speed Gust Speed Precip Events Conditions
12:00 AM 72 °F - 69 °F 88% 29.87 in 12 mi Calm Calm - -   Partly Cloudy
12:00 AM 71.6 °F - 69.8 °F 94% 29.86 in 6.2 mi Calm Calm - N/A   Scattered Clouds
1:00 AM 71.6 °F - 68.0 °F 88% 29.86 in 6.2 mi Calm Calm - N/A   Partly Cloudy
2:00 AM 71.6 °F - 68.0 °F 88% 29.86 in 6.2 mi East 3.5 mph - N/A   Scattered Clouds
3:00 AM 72 °F - 69 °F 86% 29.85 in 12 mi East 5.8 mph - -   Partly Cloudy
3:00 AM 73.4 °F - 68.0 °F 83% 29.83 in 6.2 mi East 5.8 mph - N/A   Mostly Cloudy
4:00 AM 73.4 °F - 68.0 °F 83% 29.83 in 6.2 mi SE 6.9 mph - N/A   Mostly Cloudy
5:00 AM 73.4 °F - 69.8 °F 88% 29.83 in 6.2 mi ESE 3.5 mph - N/A   Mostly Cloudy
6:00 AM 74 °F - 69 °F 81% 29.86 in 12 mi Calm Calm - -   Partly Cloudy
6:00 AM 73.4 °F - 69.8 °F 88% 29.86 in 6.2 mi Calm Calm - N/A   Mostly Cloudy
7:00 AM 73.4 °F - 69.8 °F 88% 29.86 in 6.2 mi SE 4.6 mph - N/A   Mostly Cloudy
8:00 AM 77.0 °F - 69.8 °F 78% 29.86 in 6.2 mi ESE 5.8 mph - N/A   Scattered Clouds
9:00 AM 82 °F - 70 °F 59% 29.89 in 31 mi SE 3.5 mph - -   Partly Cloudy
9:00 AM 82.4 °F 86.3 °F 69.8 °F 66% 29.89 in 6.2 mi SE 3.5 mph - N/A   Scattered Clouds
10:00 AM 84.2 °F 89.6 °F 71.6 °F 66% 29.89 in 6.2 mi NW 4.6 mph - N/A   Partly Cloudy
11:00 AM 82.4 °F 87.2 °F 71.6 °F 70% 29.89 in 6.2 mi West 9.2 mph - N/A   Scattered Clouds
12:00 PM 82 °F - 72 °F 66% 29.87 in 31 mi West 11.5 mph - -   Partly Cloudy
12:00 PM 82.4 °F 88.2 °F 73.4 °F 74% 29.86 in 6.2 mi West 11.5 mph - N/A   Mostly Cloudy
1:00 PM 82.4 °F 88.2 °F 73.4 °F 74% 29.83 in 6.2 mi West 12.7 mph - N/A   Mostly Cloudy
2:00 PM 82.4 °F 89.5 °F 75.2 °F 79% 29.83 in 6.2 mi West 13.8 mph - N/A   Mostly Cloudy
3:00 PM 83 °F - 72 °F 63% 29.83 in 12 mi WNW 10.4 mph - -   Partly Cloudy
3:00 PM 84.2 °F 89.6 °F 71.6 °F 66% 29.80 in 6.2 mi WNW 10.4 mph - N/A   Mostly Cloudy
4:00 PM 86.0 °F 90.4 °F 69.8 °F 58% 29.80 in 6.2 mi NNW 9.2 mph - N/A   Mostly Cloudy
5:00 PM 84.2 °F 90.9 °F 73.4 °F 70% 29.80 in 6.2 mi NNE 10.4 mph - N/A   Mostly Cloudy
6:00 PM 82 °F - 71 °F 61% 29.84 in 12 mi NNE 10.4 mph - -   Partly Cloudy
6:00 PM 82.4 °F 87.2 °F 71.6 °F 70% 29.83 in 6.2 mi NNE 10.4 mph - N/A   Mostly Cloudy
7:00 PM 80.6 °F 84.6 °F 71.6 °F 74% 29.83 in 6.2 mi NNE 6.9 mph - N/A   Mostly Cloudy
8:00 PM 78.8 °F - 71.6 °F 78% 29.86 in 6.2 mi North 12.7 mph - N/A   Mostly Cloudy
9:00 PM 79 °F - 72 °F 72% 29.89 in 12 mi Calm Calm - -   Partly Cloudy
9:00 PM 78.8 °F - 71.6 °F 78% 29.89 in 6.2 mi Calm Calm - N/A   Mostly Cloudy
10:00 PM 78.8 °F - 71.6 °F 78% 29.89 in 6.2 mi Calm Calm - N/A   Mostly Cloudy
11:00 PM 77.0 °F - 73.4 °F 89% 29.89 in 6.2 mi Calm Calm - N/A   Mostly Cloudy